TITAN 3C TRANSTAGE DEB, 43454

Orbit data source: Space-Track

TITAN 3C TRANSTAGE DEB, 43454 is space debris in GEO originally from a launch on Sun, 09 Feb 1969 UTC launched from the Air Force Eastern Test Range (AFETR). Debris objects in space refer to the collection of defunct objects orbiting the Earth. Examples of debris include non-operational satellites, rocket bodies, and fragments generated from explosions, collisions, or faulty payload assembly.

Loading next visibility...
Identifier
43454, 1969-013M
Orbit
GEO
Country
Flag of USUS
Related business
Manufacturer
Martin Marietta
Mission
Spacecraft
Bus & Motor
Unknown
Mass
Unknown
Launch date (UTC)
1969-02-09 (57 years ago)
Launch vehicle
Unknown
Launch site
Air Force Eastern Test Range (AFETR)
Object type
Payload
Rocket body
Debris
Shape & HBR
Unknown shape, 1.1 m
Radar Cross Section
RCS unknown

Expand to show TLE details & history
Last TLE update: 1 day ago

TLE from 1 day ago
0 TITAN 3C TRANSTAGE DEB
1 43454U 69013M   26070.72056279 -.00000193  00000-0  00000+0 0  9995
2 43454   0.9538 133.6249 0546515 337.1442 255.1370  1.02845447 29633
Epoch: 2026-03-11T17:17Z
TLE epoch observation values (Epoch: 2026-03-11T17:17:36.625Z)
Latitude
-0.69831°
Longitude
-68.78742°
Altitude
35,779.03 km
Speed
3.049 km/s
True Right ascension
23h 59m 59s
True Declination
0° 41' 51"
Sunlit
Object was in daylight at epoch
Visualization orbit readout
Latitude
Unknown
Longitude
Unknown
Altitude
Unknown
Speed
Unknown
Apparent Right ascension
Unknown
Apparent Declination
Unknown
Sunlit
N/A
Visualization observer readout
Local Sidereal Time
08:48:10
Azimuth
Unknown
Elevation
Unknown
Doppler factor
Unknown
Orbital elements
Apogee altitude
37,347.104 km
Perigee altitude
32,815.465 km
Semi-major axis
41,459.421 km
Eccentricity
0.05465
Inclination
0.9538°
RAAN
133.6249°
Arg. of periapsis
337.1442°
True anomaly
249.19887°
Mean anomaly
255.137°
Eccentric anomaly
252.15633°
Mean motion
0.2571 °/min
Orbital period
1,400.21 mins
BSTAR
0
Loading maneuver chart data...
Computing Atmospheric mass density...

Documentation

Showing up to 5 results
|